TimeEDT,TemperatureF,Dew PointF,Humidity,Sea Level PressureIn,VisibilityMPH,Wind Direction,Wind SpeedMPH,Gust SpeedMPH,PrecipitationIn,Events,Conditions,WindDirDegrees,DateUTC
12:53 AM,48.9,45.0,86,30.07,10.0,Calm,Calm,-,N/A,,Clear,0,2012-11-02 04:53:00
1:53 AM,48.0,45.0,89,30.07,8.0,Calm,Calm,-,N/A,,Clear,0,2012-11-02 05:53:00
2:53 AM,46.9,44.1,90,30.07,7.0,Calm,Calm,-,N/A,,Clear,0,2012-11-02 06:53:00
3:53 AM,46.0,44.1,93,30.07,8.0,Calm,Calm,-,N/A,,Clear,0,2012-11-02 07:53:00
4:53 AM,45.0,43.0,93,30.07,7.0,Calm,Calm,-,N/A,,Clear,0,2012-11-02 08:53:00
5:53 AM,45.0,42.1,90,30.07,8.0,Calm,Calm,-,N/A,,Clear,0,2012-11-02 09:53:00
6:53 AM,44.1,42.1,93,30.08,8.0,Calm,Calm,-,N/A,,Clear,0,2012-11-02 10:53:00
7:53 AM,44.1,42.1,93,30.09,10.0,Calm,Calm,-,N/A,Fog,Shallow Fog,0,2012-11-02 11:53:00
7:55 AM,44.6,42.8,93,30.05,10.0,Calm,Calm,-,N/A,Fog,Shallow Fog,0,2012-11-02 11:55:00
8:02 AM,44.6,42.8,93,30.06,10.0,Calm,Calm,-,N/A,Fog,Shallow Fog,0,2012-11-02 12:02:00
8:53 AM,50.0,46.9,89,30.10,10.0,Calm,Calm,-,N/A,,Clear,0,2012-11-02 12:53:00
9:53 AM,60.1,53.1,78,30.12,10.0,Calm,Calm,-,N/A,,Clear,0,2012-11-02 13:53:00
10:53 AM,69.1,55.9,63,30.12,10.0,SSE,5.8,-,N/A,,Clear,160,2012-11-02 14:53:00
11:53 AM,73.9,57.9,57,30.12,9.0,South,8.1,-,N/A,,Clear,180,2012-11-02 15:53:00
12:53 PM,75.9,57.9,54,30.10,10.0,SW,8.1,16.1,N/A,,Clear,220,2012-11-02 16:53:00
1:53 PM,75.9,57.9,54,30.08,10.0,SSW,10.4,-,N/A,,Partly Cloudy,210,2012-11-02 17:53:00
2:53 PM,77.0,57.0,50,30.06,10.0,SW,16.1,19.6,N/A,,Scattered Clouds,220,2012-11-02 18:53:00
3:53 PM,78.1,57.0,48,30.05,10.0,SW,11.5,19.6,N/A,,Partly Cloudy,230,2012-11-02 19:53:00
4:53 PM,77.0,61.0,58,30.04,10.0,SSW,11.5,18.4,N/A,,Partly Cloudy,210,2012-11-02 20:53:00
5:53 PM,73.9,63.0,68,30.03,10.0,SW,11.5,-,N/A,,Clear,220,2012-11-02 21:53:00
6:53 PM,71.1,64.9,81,30.04,10.0,SW,4.6,-,N/A,,Clear,220,2012-11-02 22:53:00
7:53 PM,68.0,64.9,90,30.05,10.0,SSW,3.5,-,N/A,,Clear,210,2012-11-02 23:53:00
8:53 PM,64.9,63.0,93,30.05,10.0,SSW,3.5,-,N/A,,Clear,210,2012-11-03 00:53:00
9:42 PM,62.6,60.8,94,30.03,7.0,Calm,Calm,-,N/A,,Clear,0,2012-11-03 01:42:00
9:53 PM,63.0,61.0,93,30.07,5.0,Calm,Calm,-,N/A,,Clear,0,2012-11-03 01:53:00
10:53 PM,63.0,62.1,97,30.08,5.0,Calm,Calm,-,N/A,,Clear,0,2012-11-03 02:53:00
11:00 PM,62.6,62.6,100,30.04,0.5,Calm,Calm,-,N/A,Fog,Fog,0,2012-11-03 03:00:00
11:09 PM,62.6,62.6,100,30.04,0.2,Calm,Calm,-,N/A,Fog,Fog,0,2012-11-03 03:09:00
11:36 PM,62.6,60.8,94,30.05,0.8,Calm,Calm,-,N/A,,Mist,0,2012-11-03 03:36:00
11:53 PM,59.0,59.0,100,30.09,0.2,Calm,Calm,-,N/A,Fog,Fog,0,2012-11-03 03:53:00